Regional Weather Roundup
Issued by NWS

Home | Current Version | Previous Version | Graphics & Text | Print | Product List | Glossary On
Versions: 1 2 3 4 5 6 7 8 9 10 11 12 13 14 15 16 17 18 19 20 21 22 23 24 25 26 27 28 29 30 31 32 33 34 35 36 37 38 39 40 41 42 43 44 45 46 47 48 49 50
573
ASUS43 KLMK 240610
RWRKY
KENTUCKY REGIONAL WEATHER ROUNDUP
NATIONAL WEATHER SERVICE LOUISVILLE KY
200 AM EDT TUE MAY 24 2016

NOTE "FAIR" INDICATES FEW OR NO CLOUDS BELOW 12,000 FEET
WITH NO SIGNIFICANT WEATHER AND/OR OBSTRUCTIONS TO VISIBILITY.

KYZ001>023-026-027-061>063-070>075-240700-
WESTERN AND SOUTH CENTRAL KENTUCKY

CITY           SKY/WX    TMP DP  RH WIND       PRES   REMARKS
PADUCAH        CLOUDY    63  55  75 S5        29.98R
HENDERSON      CLOUDY    64  48  55 S6        29.99S
OWENSBORO      CLOUDY    63  51  64 CALM      30.01R
HOPKINSVILLE   CLOUDY    64  52  63 CALM      30.00S
BOWLING GREEN  CLEAR     57  51  80 CALM      30.02S
GLASGOW        CLEAR     50  50  99 CALM      30.02S
$$

KYZ024-025-028>034-038-045-046-053-240700-
NORTH CENTRAL KENTUCKY

CITY           SKY/WX    TMP DP  RH WIND       PRES   REMARKS
LOUISVILLE/SDF CLEAR     63  49  60 SE5       30.02F
LOUISVILLE/LOU CLEAR     61  51  70 E3        30.03F
FORT KNOX      CLEAR     55  49  81 NE5       30.01F
$$

KYZ035>037-039>044-047>052-055>060-089>105-240700-
NORTHEAST KENTUCKY

CITY           SKY/WX    TMP DP  RH WIND       PRES   REMARKS
LEXINGTON      CLEAR     57  51  80 SE3       30.05S
COVINGTON      CLEAR     59  50  72 CALM      30.03F
FRANKFORT      CLEAR     54  50  86 CALM      30.03F
$$

KYZ054-064>069-076>088-106>120-240700-
SOUTHEAST KENTUCKY

CITY           SKY/WX    TMP DP  RH WIND       PRES   REMARKS
JACKSON        CLEAR     59  48  67 CALM      30.06F
LONDON         CLEAR     53  50  89 CALM      30.06S
SOMERSET       CLEAR     50  50 100 CALM      30.06F
MIDDLESBORO    CLEAR     51  51  98 CALM      30.09S
MONTICELLO     CLEAR     51  49  92 W10       30.06F
$$





USA.gov is the U.S. government's official web portal to all federal, state and local government web resources and services.